Location: Lane
(33.5226°N, 79.8788°W)
Time: 22:01:15
(UTC+00:00)

Tiros 1 - Pass Details

Date: 04 October 2022
Orbit: 629 x 662 km, 48.4° (Epoch: 08 December)

Event Time Altitude Azimuth Distance (km) Brightness Sun altitude
Exits shadow 10:15:32 - 313° (NW) 2,099 9.4 -13.4°
Reaches altitude 10° 10:15:39 10° 313° (NW) 2,054 9.3 -13.4°
Maximum altitude 10:20:22 67° 37° (NE) 697 7.4 -12.4°
Drops below altitude 10° 10:25:00 10° 120° (ESE) 2,024 10.6 -11.5°
Sets 10:27:20 0° 123° (ESE) 2,925 11.5 -11.0°
